Location: Bailleul
(50.3375°N, 2.8513°E)
Time: 10:50:28
(UTC+00:00)

SPOT 5 - Pass Details

Date: 16 June 2021
Orbit: 622 x 815 km, 98.2° (Epoch: 28 July)

Event Time Altitude Azimuth Distance (km) Brightness Sun altitude
Exits shadow 20:53:04 - 150° (SSE) 2,542 5.0 -6.6°
Reaches altitude 10° 20:53:36 10° 149° (SSE) 2,333 4.8 -6.7°
Maximum altitude 20:58:40 60° 70° (ENE) 869 3.2 -7.2°
Drops below altitude 10° 21:03:30 10° 352° (N) 2,235 6.5 -7.7°
Sets 21:05:45 0° 349° (N) 3,130 7.5 -7.9°
